カタログに戻る

GONETS M 16

M26

運用中通信PO
NORAD 44907·PAYLOAD·🇷🇺 Russia

打ち上げ Dec 26, 2019 から Plesetsk Cosmodrome

Loading…

次のパス (今後24時間)

TLE

最新Source: Space-Track

元期: Sep 14, 2026, 14:47 UTC

1 44907U 19096C   26257.61616111 -.00000114  00000-0 -89455-3 0  9996
2 44907  82.5229  28.5656 0011090  27.5350 332.6315 12.42893588304740

AllMySatでGONETS M 16をリアルタイム追跡

Download on the App Store